Regional Weather Roundup
Issued by NWS

Home | Current Version | Previous Version | Text Only | Print | Product List | Glossary On
Versions: 1 2 3 4 5 6 7 8 9 10 11 12 13 14 15 16 17 18 19 20 21 22 23 24 25 26 27 28 29 30 31 32 33 34 35 36 37 38 39 40 41 42 43 44 45 46 47 48 49 50
000
ASUS43 KLSX 262107
RWRMO

WEATHER SUMMARY FOR MISSOURI
NATIONAL WEATHER SERVICE SPRINGFIELD MO
300 PM CST WED NOV 26 2014

NOTE: "FAIR" INDICATES FEW OR NO CLOUDS BELOW 12,000 FEET WITH NO
       SIGNIFICANT WEATHER AND/OR OBSTRUCTIONS TO VISIBILITY.
       CURRENT SKY AND/OR WEATHER CONDITIONS ARE NOT AVAILABLE FOR
       CHILLICOTHE AND FARMINGTON.

MOZ001>031-035>038-043-044-053-054-262200-
...NORTHERN AND WESTERN MISSOURI...

CITY           SKY/WX    TMP DP  RH WIND       PRES   REMARKS
KANSAS CTY INT CLOUDY    35  29  78 NW18G31   30.09R WCI  24
KANSAS C DTWN  CLOUDY    38  29  70 NW15G28   30.09R WCI  29
LEE`S SUMMIT   CLOUDY    36  30  79 W20G31    30.08R WCI  25
ST JOSEPH      CLOUDY    34  27  75 NW25G37   30.10R WCI  21
CHILLICOTHE      N/A     37  31  78 NW10G24   30.02R WCI  30
KIRKSVILLE     CLOUDY    34  34 100 E3        29.95R FOG

$$
MOZ066>068-077>081-088>096-101>105-262200-
...SOUTHWEST MISSOURI...

CITY           SKY/WX    TMP DP  RH WIND       PRES   REMARKS
SPRINGFIELD    CLOUDY    44  27  51 NW17G25   30.05R
JOPLIN         CLOUDY    46  26  45 NW20G28   30.11R

$$
MOZ032>034-039>042-045>050-055>058-069>072-262200-
...CENTRAL MISSOURI...

CITY           SKY/WX    TMP DP  RH WIND       PRES   REMARKS
COLUMBIA       LGT RAIN  40  36  86 W7        29.97R
JEFFERSON CITY CLOUDY    42  36  79 W7        29.99R
ROLLA          LGT RAIN  36  34  92 SW7       29.95R FOG
SEDALIA        LGT RAIN  40  31  70 NW17G26   30.02R
WHITEMAN AFB   CLOUDY    40  31  70 NW17G24   30.02R
WARRENSBURG    CLOUDY    39  32  75 W18G28    30.05R WCI  30
OSAGE BEACH    PTSUNNY   43  34  70 W10G16    30.00R

$$
MOZ051-052-059>065-262200-
...EAST CENTRAL MISSOURI...

CITY           SKY/WX    TMP DP  RH WIND       PRES   REMARKS
ST LOUIS INTL  LGT SNOW  34  30  86 SE6       30.00  VSB 3/4 WCI  29
SPIRIT OF STL  LGT SNOW  33  32  96 CALM      29.99R FOG
ST CHARLES     SNOW      32  32 100 E3        30.00R VSB 1/4

$$
MOZ072>076-082>087-097>100-106>115-262200-
...SOUTH CENTRAL AND SOUTHEAST MISSOURI...

CITY           SKY/WX    TMP DP  RH WIND       PRES   REMARKS
CAPE GIRARDEAU MIX PCPN  37  35  92 S5        30.00R FOG
FARMINGTON     CLOUDY    34  30  86 S5        29.98R VSB 1   WCI  30
POPLAR BLUFF   CLOUDY    40  34  79 W8        30.00R
WEST PLAINS    LGT RAIN  40  33  76 NW18G29   30.01R

$$


USA.gov is the U.S. government's official web portal to all federal, state and local government web resources and services.